TimeEDT,TemperatureF,Dew PointF,Humidity,Sea Level PressureIn,VisibilityMPH,Wind Direction,Wind SpeedMPH,Gust SpeedMPH,PrecipitationIn,Events,Conditions,WindDirDegrees,DateUTC
12:55 AM,42.6,36.0,77,29.59,10.0,West,5.8,-,N/A,,Overcast,260,2012-11-03 04:55:00
1:55 AM,43.3,36.0,75,29.60,10.0,West,6.9,-,N/A,,Overcast,270,2012-11-03 05:55:00
2:55 AM,43.3,35.6,74,29.60,10.0,West,6.9,-,N/A,,Overcast,280,2012-11-03 06:55:00
3:55 AM,43.2,35.2,74,29.60,10.0,West,6.9,-,N/A,,Overcast,280,2012-11-03 07:55:00
4:55 AM,43.2,35.4,74,29.61,10.0,West,4.6,-,N/A,,Overcast,270,2012-11-03 08:55:00
5:55 AM,43.2,35.2,74,29.62,10.0,West,5.8,-,N/A,,Overcast,270,2012-11-03 09:55:00
6:55 AM,43.5,35.1,72,29.64,10.0,West,4.6,-,N/A,,Overcast,280,2012-11-03 10:55:00
7:55 AM,43.7,35.1,72,29.66,10.0,West,5.8,-,N/A,,Mostly Cloudy,270,2012-11-03 11:55:00
8:55 AM,44.4,35.4,71,29.68,10.0,West,5.8,-,N/A,,Mostly Cloudy,280,2012-11-03 12:55:00
9:55 AM,45.3,34.9,67,29.69,10.0,West,9.2,-,N/A,,Mostly Cloudy,280,2012-11-03 13:55:00
10:55 AM,46.4,35.2,65,29.70,10.0,West,9.2,-,N/A,,Mostly Cloudy,280,2012-11-03 14:55:00
11:55 AM,47.8,34.5,60,29.69,10.0,West,11.5,-,N/A,,Mostly Cloudy,280,2012-11-03 15:55:00
12:55 PM,48.7,32.9,54,29.68,10.0,WNW,16.1,21.9,N/A,,Mostly Cloudy,290,2012-11-03 16:55:00
1:55 PM,52.9,33.3,47,29.67,10.0,WNW,13.8,-,N/A,,Mostly Cloudy,290,2012-11-03 17:55:00
2:55 PM,51.6,32.4,48,29.68,10.0,West,13.8,-,N/A,,Scattered Clouds,280,2012-11-03 18:55:00
3:55 PM,51.6,32.0,47,29.68,10.0,NW,15.0,-,N/A,,Scattered Clouds,310,2012-11-03 19:55:00
4:55 PM,49.3,31.8,51,29.70,10.0,West,10.4,-,N/A,,Scattered Clouds,280,2012-11-03 20:55:00
5:55 PM,46.8,30.6,53,29.72,10.0,WNW,12.7,21.9,N/A,,Mostly Cloudy,290,2012-11-03 21:55:00
6:55 PM,45.9,30.2,54,29.74,10.0,WNW,10.4,-,N/A,,Mostly Cloudy,290,2012-11-03 22:55:00
7:55 PM,45.0,29.5,55,29.75,10.0,WNW,16.1,25.3,N/A,,Overcast,300,2012-11-03 23:55:00
8:55 PM,43.9,30.2,59,29.76,10.0,WNW,9.2,-,N/A,,Overcast,300,2012-11-04 00:55:00
9:55 PM,42.6,30.6,62,29.76,10.0,West,9.2,-,N/A,,Mostly Cloudy,280,2012-11-04 01:55:00
10:55 PM,42.1,30.7,64,29.76,10.0,West,8.1,-,N/A,,Overcast,280,2012-11-04 02:55:00
11:55 PM,43.2,31.1,62,29.75,10.0,West,9.2,-,N/A,,Overcast,280,2012-11-04 03:55:00